| time (UTC) | temp F | wind direction | speed knots | gust knots | rain 1hr in | rain 24hr in | rain mn in | humidity % | barometer mb |
| 20260506070509 | 58 | 273 | 0.9 | 4.3 | 0.00 | 0.15 | 0.00 | 48 | 1012.3 |
| 20260506062509 | 59 | 273 | 0.0 | 1.7 | 0.00 | 0.19 | 0.15 | 46 | 1012.1 |
| 20260506062011 | 59 | 273 | 0.0 | 1.7 | 0.00 | 0.19 | 0.15 | 46 | 1012.1 |
| 20260506061532 | 60 | 273 | 0.0 | 1.7 | 0.00 | 0.20 | 0.15 | 46 | 1012.0 |
| 20260506061012 | 60 | 273 | 0.9 | 1.7 | 0.00 | 0.20 | 0.15 | 46 | 1012.0 |
| 20260506060509 | 60 | 273 | 0.0 | 1.7 | 0.00 | 0.20 | 0.15 | 46 | 1012.0 |
| 20260506051008 | 63 | 273 | 0.9 | 6.1 | 0.00 | 0.22 | 0.15 | 39 | 1011.8 |
| 20260506050504 | 63 | 273 | 1.7 | 6.1 | 0.00 | 0.22 | 0.15 | 38 | 1011.7 |
| 20260506045005 | 63 | 273 | 2.6 | 7.0 | 0.00 | 0.22 | 0.15 | 1011.4 | |
| 20260506044502 | 63 | 273 | 1.7 | 6.1 | 0.00 | 0.22 | 0.15 | 38 | 1011.4 |
| 20260506044001 | 63 | 273 | 1.7 | 6.1 | 0.00 | 0.22 | 0.15 | 38 | 1011.4 |
| 20260506043503 | 63 | 273 | 2.6 | 6.1 | 0.00 | 0.22 | 0.15 | 37 | 1011.3 |
| 20260506043006 | 64 | 273 | 3.5 | 6.1 | 0.00 | 0.22 | 0.15 | 37 | 1011.3 |
| 20260506042503 | 64 | 273 | 1.7 | 5.2 | 0.00 | 0.23 | 0.15 | 37 | 1011.3 |
| 20260506042003 | 64 | 273 | 2.6 | 5.2 | 0.00 | 0.23 | 0.15 | 37 | 1011.1 |
| 20260506041506 | 64 | 272 | 1.7 | 5.2 | 0.00 | 0.24 | 0.15 | 37 | 1011.1 |
| 20260506041004 | 64 | 272 | 0.9 | 6.1 | 0.00 | 0.25 | 0.15 | 37 | 1011.0 |
| 20260506040503 | 64 | 272 | 1.7 | 6.1 | 0.00 | 0.25 | 0.15 | 37 | 1010.9 |
| 20260506040005 | 65 | 271 | 4.3 | 6.1 | 0.00 | 0.26 | 0.15 | 36 | 1010.9 |
| 20260506035506 | 65 | 266 | 3.5 | 6.1 | 0.00 | 0.26 | 0.15 | 37 | 1010.8 |
| 20260506035004 | 65 | 255 | 2.6 | 5.2 | 0.00 | 0.27 | 0.15 | 37 | 1010.7 |
| 20260506034505 | 65 | 254 | 0.9 | 3.5 | 0.00 | 0.27 | 0.15 | 38 | 1010.5 |
| 20260506034008 | 65 | 253 | 1.7 | 3.5 | 0.00 | 0.27 | 0.15 | 39 | 1010.4 |
| 20260506033506 | 65 | 253 | 1.7 | 4.3 | 0.00 | 0.27 | 0.15 | 40 | 1010.4 |
| 20260506033004 | 65 | 253 | 0.9 | 6.1 | 0.00 | 0.27 | 0.15 | 40 | 1010.3 |
| 20260506032503 | 66 | 253 | 2.6 | 6.1 | 0.00 | 0.27 | 0.15 | 39 | 1010.2 |
| 20260506032004 | 66 | 257 | 0.9 | 6.1 | 0.00 | 0.27 | 0.15 | 38 | 1010.2 |
| 20260506031503 | 66 | 257 | 1.7 | 6.1 | 0.00 | 0.27 | 0.15 | 37 | 1010.0 |
| 20260506031004 | 66 | 257 | 0.9 | 5.2 | 0.00 | 0.27 | 0.15 | 38 | 1009.9 |
| 20260506030504 | 66 | 257 | 0.9 | 2.6 | 0.00 | 0.27 | 0.15 | 38 | 1009.9 |
| 20260506030005 | 66 | 257 | 0.9 | 6.1 | 0.00 | 0.27 | 0.15 | 39 | 1009.8 |
| 20260506025503 | 66 | 257 | 2.6 | 7.8 | 0.00 | 0.27 | 0.15 | 38 | 1009.8 |
| 20260506025004 | 66 | 265 | 3.5 | 7.8 | 0.00 | 0.28 | 0.15 | 38 | 1009.8 |
| 20260506024505 | 66 | 230 | 1.7 | 7.0 | 0.00 | 0.28 | 0.15 | 38 | 1009.6 |
| 20260506024006 | 66 | 223 | 1.7 | 7.8 | 0.00 | 0.28 | 0.15 | 37 | 1009.5 |
| 20260506023505 | 66 | 224 | 3.5 | 7.8 | 0.00 | 0.28 | 0.15 | 37 | 1009.5 |
| 20260506023007 | 67 | 242 | 2.6 | 8.7 | 0.00 | 0.28 | 0.15 | 37 | 1009.5 |
| 20260506022505 | 67 | 234 | 3.5 | 8.7 | 0.00 | 0.28 | 0.15 | 36 | 1009.4 |
| 20260506022002 | 67 | 230 | 3.5 | 10.4 | 0.00 | 0.28 | 0.15 | 36 | 1009.3 |
| 20260506021504 | 67 | 226 | 3.5 | 10.4 | 0.00 | 0.28 | 0.15 | 36 | 1009.3 |
| 20260506021005 | 67 | 236 | 2.6 | 11.3 | 0.00 | 0.28 | 0.15 | 35 | 1009.1 |
| 20260506020507 | 67 | 224 | 3.5 | 11.3 | 0.00 | 0.29 | 0.15 | 35 | 1009.0 |
| 20260506020003 | 67 | 233 | 4.3 | 8.7 | 0.00 | 0.29 | 0.15 | 34 | 1009.0 |
| 20260506015503 | 68 | 245 | 4.3 | 12.2 | 0.00 | 0.29 | 0.15 | 34 | 1008.9 |
| 20260506015003 | 68 | 231 | 6.1 | 13.9 | 0.00 | 0.30 | 0.15 | 33 | 1008.8 |
| 20260506014506 | 68 | 251 | 3.5 | 13.9 | 0.00 | 0.30 | 0.15 | 32 | 1008.9 |
| 20260506014004 | 68 | 255 | 5.2 | 12.2 | 0.00 | 0.31 | 0.15 | 31 | 1008.8 |
| 20260506013504 | 69 | 238 | 6.1 | 13.0 | 0.00 | 0.32 | 0.15 | 30 | 1008.8 |
| 20260506013008 | 69 | 255 | 7.0 | 13.0 | 0.00 | 0.32 | 0.15 | 28 | 1008.7 |
| 20260506012504 | 69 | 223 | 7.8 | 14.8 | 0.00 | 0.33 | 0.15 | 28 | 1008.6 |
| 20260506012010 | 69 | 248 | 9.6 | 14.8 | 0.00 | 0.33 | 0.15 | 28 | 1008.6 |
| 20260506011517 | 70 | 244 | 6.1 | 16.5 | 0.00 | 0.33 | 0.15 | 28 | 1008.6 |
| 20260506011005 | 70 | 259 | 9.6 | 18.2 | 0.00 | 0.33 | 0.15 | 29 | 1008.6 |
| 20260506010502 | 70 | 256 | 7.0 | 18.2 | 0.00 | 0.33 | 0.15 | 30 | 1008.6 |
| 20260506010004 | 70 | 252 | 5.2 | 16.5 | 0.00 | 0.33 | 0.15 | 30 | 1008.5 |
| 20260506005502 | 69 | 261 | 9.6 | 16.5 | 0.00 | 0.33 | 0.15 | 30 | 1008.5 |
| 20260506005004 | 70 | 269 | 7.8 | 17.4 | 0.00 | 0.33 | 0.15 | 31 | 1008.4 |
| 20260506004503 | 70 | 271 | 7.8 | 17.4 | 0.00 | 0.33 | 0.15 | 31 | 1008.4 |
| 20260506004003 | 71 | 237 | 8.7 | 22.6 | 0.00 | 0.33 | 0.15 | 31 | 1008.3 |
| 20260506003503 | 71 | 246 | 7.0 | 22.6 | 0.00 | 0.33 | 0.15 | 30 | 1008.3 |
| 20260506003005 | 71 | 259 | 10.4 | 19.1 | 0.00 | 0.33 | 0.15 | 30 | 1008.2 |
| 20260506002504 | 71 | 221 | 9.6 | 19.1 | 0.00 | 0.33 | 0.15 | 30 | 1008.2 |
| 20260506002007 | 72 | 242 | 7.8 | 15.6 | 0.00 | 0.33 | 0.15 | 29 | 1008.1 |
| 20260506001513 | 72 | 263 | 6.1 | 18.2 | 0.00 | 0.33 | 0.15 | 30 | 1008.0 |
| 20260506001005 | 71 | 265 | 10.4 | 18.2 | 0.00 | 0.33 | 0.15 | 30 | 1008.1 |
| 20260506000509 | 72 | 234 | 8.7 | 17.4 | 0.00 | 0.33 | 0.15 | 29 | 1008.1 |
| 20260506000018 | 72 | 232 | 6.1 | 16.5 | 0.00 | 0.33 | 0.15 | 29 | 1008.0 |
| 20260505235502 | 72 | 246 | 10.4 | 16.5 | 0.00 | 0.33 | 0.15 | 30 | 1008.0 |
| 20260505235003 | 71 | 244 | 7.0 | 19.1 | 0.00 | 0.33 | 0.15 | 32 | 1007.8 |
| 20260505234504 | 72 | 269 | 9.6 | 19.1 | 0.00 | 0.33 | 0.15 | 31 | 1007.8 |
| 20260505234004 | 72 | 262 | 7.0 | 21.7 | 0.00 | 0.33 | 0.15 | 31 | 1007.8 |
| 20260505233503 | 72 | 243 | 7.8 | 21.7 | 0.00 | 0.33 | 0.15 | 29 | 1007.8 |
| 20260505233020 | 72 | 264 | 7.0 | 15.6 | 0.00 | 0.33 | 0.15 | 30 | 1007.8 |
| 20260505232503 | 71 | 269 | 7.0 | 18.2 | 0.00 | 0.33 | 0.15 | 32 | 1007.8 |
| 20260505232004 | 71 | 264 | 8.7 | 18.2 | 0.00 | 0.33 | 0.15 | 31 | 1007.8 |
| 20260505231512 | 73 | 255 | 9.6 | 17.4 | 0.00 | 0.33 | 0.15 | 31 | 1007.8 |
| 20260505231008 | 73 | 269 | 7.0 | 19.1 | 0.00 | 0.33 | 0.15 | 31 | 1007.8 |
| 20260505230505 | 72 | 232 | 8.7 | 19.1 | 0.00 | 0.33 | 0.15 | 31 | 1007.8 |
| 20260505230020 | 73 | 270 | 9.6 | 17.4 | 0.00 | 0.33 | 0.15 | 30 | 1007.7 |
| 20260505225508 | 73 | 271 | 8.7 | 15.6 | 0.00 | 0.33 | 0.15 | 30 | 1007.7 |
| 20260505225008 | 73 | 232 | 7.8 | 18.2 | 0.00 | 0.33 | 0.15 | 29 | 1007.9 |
| 20260505224527 | 72 | 260 | 6.1 | 18.2 | 0.00 | 0.33 | 0.15 | 30 | 1008.0 |
| 20260505224002 | 72 | 254 | 11.3 | 17.4 | 0.00 | 0.33 | 0.15 | 30 | 1008.1 |
| 20260505223503 | 72 | 259 | 3.5 | 16.5 | 0.00 | 0.33 | 0.15 | 31 | 1008.0 |
| 20260505223009 | 73 | 219 | 8.7 | 16.5 | 0.00 | 0.33 | 0.15 | 31 | 1008.3 |
| 20260505222503 | 71 | 235 | 6.1 | 15.6 | 0.00 | 0.33 | 0.15 | 33 | 1008.1 |
| 20260505222004 | 72 | 257 | 6.1 | 17.4 | 0.00 | 0.33 | 0.15 | 31 | 1008.3 |
| 20260505221507 | 73 | 271 | 8.7 | 17.4 | 0.00 | 0.33 | 0.15 | 31 | 1008.4 |
| 20260505221006 | 72 | 267 | 8.7 | 17.4 | 0.00 | 0.33 | 0.15 | 31 | 1008.2 |
| 20260505220504 | 73 | 226 | 6.1 | 17.4 | 0.00 | 0.33 | 0.15 | 31 | 1008.4 |
| 20260505220013 | 72 | 254 | 5.2 | 17.4 | 0.00 | 0.33 | 0.15 | 32 | 1008.4 |
| 20260505215505 | 72 | 228 | 6.1 | 17.4 | 0.00 | 0.33 | 0.15 | 32 | 1008.5 |
| 20260505215006 | 73 | 214 | 8.7 | 17.4 | 0.00 | 0.33 | 0.15 | 33 | 1008.8 |
| 20260505214521 | 72 | 262 | 3.5 | 17.4 | 0.00 | 0.33 | 0.15 | 32 | 1008.6 |
| 20260505214007 | 72 | 269 | 7.0 | 14.8 | 0.00 | 0.33 | 0.15 | 33 | 1008.6 |
| 20260505213512 | 71 | 281 | 5.2 | 12.2 | 0.00 | 0.33 | 0.15 | 34 | 1008.7 |
| 20260505213004 | 72 | 242 | 0.9 | 12.2 | 0.00 | 0.33 | 0.15 | 34 | 1008.7 |
| 20260505212504 | 73 | 264 | 5.2 | 17.4 | 0.00 | 0.33 | 0.15 | 36 | 1008.7 |
| 20260505212003 | 72 | 246 | 7.8 | 17.4 | 0.00 | 0.33 | 0.15 | 34 | 1008.7 |
| 20260505211508 | 72 | 257 | 6.1 | 15.6 | 0.00 | 0.33 | 0.15 | 36 | 1008.8 |
| 20260505211005 | 71 | 262 | 7.0 | 15.6 | 0.00 | 0.33 | 0.15 | 37 | 1008.9 |
| 20260505210503 | 71 | 239 | 9.6 | 17.4 | 0.00 | 0.33 | 0.15 | 39 | 1009.0 |
| 20260505210014 | 71 | 263 | 11.3 | 17.4 | 0.00 | 0.33 | 0.15 | 42 | 1009.1 |
| 20260505205509 | 72 | 291 | 7.8 | 14.8 | 0.00 | 0.33 | 0.15 | 42 | 1009.1 |
| 20260505205009 | 71 | 288 | 7.0 | 14.8 | 0.00 | 0.33 | 0.15 | 43 | 1009.0 |
| 20260505204523 | 71 | 263 | 7.8 | 13.9 | 0.00 | 0.33 | 0.15 | 44 | 1009.1 |
| 20260505204006 | 71 | 304 | 6.1 | 17.4 | 0.00 | 0.33 | 0.15 | 46 | 1009.2 |
| 20260505203508 | 70 | 280 | 6.1 | 17.4 | 0.00 | 0.33 | 0.15 | 46 | 1009.1 |
| 20260505203023 | 69 | 237 | 7.0 | 14.8 | 0.00 | 0.33 | 0.15 | 49 | 1009.3 |
| 20260505202507 | 69 | 270 | 6.1 | 16.5 | 0.00 | 0.33 | 0.15 | 51 | 1009.1 |
| 20260505202003 | 69 | 248 | 6.1 | 17.4 | 0.00 | 0.33 | 0.15 | 51 | 1009.2 |
| 20260505201505 | 69 | 253 | 7.0 | 17.4 | 0.00 | 0.33 | 0.15 | 50 | 1009.3 |
| 20260505201004 | 69 | 276 | 3.5 | 12.2 | 0.00 | 0.33 | 0.15 | 50 | 1009.4 |
| 20260505200503 | 69 | 247 | 4.3 | 10.4 | 0.00 | 0.33 | 0.15 | 51 | 1009.3 |
| 20260505200021 | 68 | 243 | 1.7 | 10.4 | 0.00 | 0.33 | 0.15 | 49 | 1009.5 |
| 20260505195504 | 70 | 219 | 4.3 | 10.4 | 0.00 | 0.33 | 0.15 | 50 | 1009.5 |
| 20260505195008 | 69 | 236 | 4.3 | 12.2 | 0.00 | 0.33 | 0.15 | 50 | 1009.5 |
| 20260505194513 | 69 | 221 | 3.5 | 12.2 | 0.00 | 0.33 | 0.15 | 51 | 1009.7 |
| 20260505194009 | 68 | 234 | 4.3 | 11.3 | 0.00 | 0.33 | 0.15 | 54 | 1009.6 |
| 20260505193508 | 67 | 281 | 4.3 | 11.3 | 0.00 | 0.33 | 0.15 | 52 | 1009.6 |
| 20260505193023 | 69 | 232 | 1.7 | 7.8 | 0.00 | 0.33 | 0.15 | 55 | 1009.6 |
| 20260505192510 | 67 | 261 | 3.5 | 9.6 | 0.00 | 0.33 | 0.15 | 57 | 1009.8 |
| 20260505192007 | 67 | 267 | 5.2 | 9.6 | 0.00 | 0.33 | 0.15 | 56 | 1009.8 |
| 20260505191524 | 67 | 273 | 1.7 | 9.6 | 0.00 | 0.33 | 0.15 | 58 | 1009.8 |
| 20260505191011 | 67 | 273 | 4.3 | 9.6 | 0.00 | 0.33 | 0.15 | 57 | 1009.9 |
| 20260505190508 | 67 | 271 | 3.5 | 8.7 | 0.00 | 0.33 | 0.15 | 59 | 1009.9 |
| 20260505190008 | 66 | 265 | 1.7 | 8.7 | 0.00 | 0.33 | 0.15 | 59 | 1010.1 |
| 20260505185504 | 66 | 268 | 1.7 | 5.2 | 0.00 | 0.33 | 0.15 | 60 | 1010.2 |
| 20260505185004 | 66 | 269 | 0.9 | 8.7 | 0.00 | 0.33 | 0.15 | 59 | 1010.1 |
| 20260505184528 | 66 | 269 | 2.6 | 8.7 | 0.00 | 0.33 | 0.15 | 60 | 1010.1 |
| 20260505184008 | 66 | 270 | 4.3 | 8.7 | 0.00 | 0.33 | 0.15 | 59 | 1010.2 |
| 20260505183511 | 66 | 172 | 0.9 | 3.5 | 0.00 | 0.33 | 0.15 | 59 | 1010.3 |
| 20260505183038 | 67 | 172 | 0.0 | 4.3 | 0.00 | 0.33 | 0.15 | 60 | 1010.3 |
| 20260505182507 | 66 | 172 | 0.9 | 4.3 | 0.00 | 0.33 | 0.15 | 62 | 1010.5 |
| 20260505182009 | 65 | 172 | 0.0 | 3.5 | 0.00 | 0.33 | 0.15 | 62 | 1010.4 |
| 20260505181525 | 65 | 176 | 0.9 | 4.3 | 0.00 | 0.33 | 0.15 | 62 | 1010.5 |
| 20260505181012 | 65 | 176 | 0.0 | 4.3 | 0.00 | 0.33 | 0.15 | 61 | 1010.4 |
| 20260505180509 | 65 | 177 | 1.7 | 4.3 | 0.00 | 0.33 | 0.15 | 64 | 1010.6 |
| 20260505180024 | 64 | 176 | 0.9 | 4.3 | 0.00 | 0.33 | 0.15 | 64 | 1010.7 |
| 20260505175503 | 64 | 177 | 2.6 | 4.3 | 0.00 | 0.33 | 0.15 | 63 | 1010.7 |
| 20260505175005 | 64 | 176 | 1.7 | 4.3 | 0.00 | 0.33 | 0.15 | 64 | 1010.7 |
| 20260505174512 | 64 | 176 | 0.0 | 2.6 | 0.00 | 0.33 | 0.15 | 64 | 1010.7 |
| 20260505174006 | 64 | 176 | 0.9 | 1.7 | 0.00 | 0.33 | 0.15 | 64 | 1010.7 |
| 20260505173506 | 64 | 177 | 0.0 | 1.7 | 0.00 | 0.33 | 0.15 | 64 | 1010.7 |
| 20260505173021 | 63 | 176 | 0.0 | 2.6 | 0.00 | 0.33 | 0.15 | 65 | 1010.8 |
| 20260505172509 | 63 | 176 | 0.0 | 3.5 | 0.00 | 0.33 | 0.15 | 64 | 1010.8 |
| 20260505172013 | 63 | 176 | 0.0 | 4.3 | 0.00 | 0.33 | 0.15 | 64 | 1010.7 |
| 20260505171526 | 63 | 177 | 1.7 | 3.5 | 0.00 | 0.33 | 0.15 | 64 | 1010.7 |
| 20260505171011 | 63 | 176 | 0.0 | 3.5 | 0.00 | 0.33 | 0.15 | 64 | 1010.7 |
| 20260505170512 | 63 | 176 | 0.9 | 2.6 | 0.00 | 0.33 | 0.15 | 65 | 1010.7 |
| 20260505170024 | 63 | 176 | 0.9 | 7.8 | 0.00 | 0.33 | 0.15 | 65 | 1010.7 |
| 20260505165508 | 63 | 176 | 0.9 | 7.8 | 0.00 | 0.33 | 0.15 | 65 | 1010.7 |
| 20260505165010 | 63 | 176 | 0.0 | 4.3 | 0.00 | 0.33 | 0.15 | 66 | 1010.6 |
| 20260505164527 | 63 | 176 | 1.7 | 3.5 | 0.00 | 0.33 | 0.15 | 67 | 1010.7 |
| 20260505164003 | 63 | 176 | 0.9 | 3.5 | 0.00 | 0.33 | 0.15 | 69 | 1010.8 |
| 20260505163509 | 62 | 176 | 0.0 | 4.3 | 0.00 | 0.33 | 0.15 | 69 | 1010.8 |
| 20260505163015 | 62 | 176 | 0.9 | 5.2 | 0.00 | 0.33 | 0.15 | 68 | 1010.7 |
| 20260505162509 | 61 | 176 | 2.6 | 4.3 | 0.00 | 0.33 | 0.15 | 70 | 1010.6 |
| 20260505162010 | 61 | 176 | 0.9 | 3.5 | 0.00 | 0.33 | 0.15 | 71 | 1010.7 |
| 20260505161526 | 61 | 176 | 0.9 | 4.3 | 0.00 | 0.33 | 0.15 | 71 | 1010.7 |
| 20260505161009 | 60 | 176 | 0.0 | 4.3 | 0.00 | 0.33 | 0.15 | 74 | 1010.8 |
| 20260505160509 | 60 | 176 | 0.0 | 3.5 | 0.00 | 0.33 | 0.15 | 74 | 1010.8 |
| 20260505153016 | 60 | 176 | 0.0 | 1.7 | 0.00 | 0.33 | 0.15 | 82 | 1010.4 |
| 20260505152507 | 59 | 176 | 0.9 | 1.7 | 0.00 | 0.33 | 0.15 | 82 | 1010.5 |
| 20260505152010 | 59 | 176 | 0.0 | 2.6 | 0.00 | 0.33 | 0.15 | 83 | 1010.5 |
| 20260505151517 | 59 | 176 | 0.0 | 3.5 | 0.00 | 0.33 | 0.15 | 85 | 1010.5 |
| 20260505151009 | 59 | 176 | 0.9 | 3.5 | 0.00 | 0.33 | 0.15 | 85 | 1010.5 |
| 20260505150507 | 59 | 176 | 0.0 | 3.5 | 0.00 | 0.33 | 0.15 | 85 | 1010.4 |
| 20260505140510 | 58 | 176 | 0.0 | 0.0 | 0.00 | 0.33 | 0.15 | 85 | 1010.2 |
| 20260505125007 | 57 | 131 | 0.0 | 0.9 | 0.00 | 0.33 | 0.15 | 88 | 1009.5 |
| 20260505124504 | 56 | 131 | 0.0 | 0.9 | 0.00 | 0.33 | 0.15 | 88 | 1009.4 |
| 20260505124005 | 57 | 131 | 0.0 | 0.9 | 0.00 | 0.33 | 0.15 | 88 | 1009.4 |
| 20260505123505 | 57 | 131 | 0.0 | 0.9 | 0.00 | 0.33 | 0.15 | 88 | 1009.3 |
| 20260505123010 | 56 | 131 | 0.0 | 1.7 | 0.00 | 0.33 | 0.15 | 88 | 1009.2 |
| 20260505122504 | 57 | 131 | 0.0 | 1.7 | 0.00 | 0.33 | 0.15 | 88 | 1009.1 |
| 20260505122006 | 57 | 131 | 0.0 | 1.7 | 0.00 | 0.33 | 0.15 | 88 | 1009.2 |
| 20260505121513 | 57 | 131 | 0.0 | 0.0 | 0.00 | 0.33 | 0.15 | 88 | 1009.3 |
| 20260505121004 | 56 | 131 | 0.0 | 0.0 | 0.00 | 0.33 | 0.15 | 88 | 1009.3 |
| 20260505120507 | 56 | 131 | 0.0 | 0.0 | 0.00 | 0.33 | 0.15 | 88 | 1009.1 |
| 20260505120018 | 56 | 131 | 0.0 | 1.7 | 0.01 | 0.33 | 0.15 | 88 | 1009.2 |
| 20260505115513 | 56 | 131 | 0.0 | 2.6 | 0.01 | 0.33 | 0.15 | 88 | 1009.1 |
| 20260505115007 | 56 | 131 | 0.0 | 2.6 | 0.01 | 0.33 | 0.15 | 88 | 1009.1 |
| 20260505114522 | 56 | 131 | 0.0 | 2.6 | 0.01 | 0.33 | 0.15 | 88 | 1008.9 |
| 20260505114009 | 56 | 131 | 0.0 | 2.6 | 0.02 | 0.33 | 0.15 | 88 | 1008.8 |
| 20260505113512 | 56 | 131 | 0.0 | 2.6 | 0.02 | 0.33 | 0.15 | 88 | 1008.9 |
| 20260505113007 | 56 | 131 | 0.0 | 1.7 | 0.02 | 0.33 | 0.15 | 88 | 1009.0 |
| 20260505112503 | 56 | 131 | 0.0 | 1.7 | 0.02 | 0.33 | 0.15 | 88 | 1009.3 |
| 20260505112003 | 56 | 131 | 0.0 | 1.7 | 0.02 | 0.33 | 0.15 | 88 | 1009.3 |
| 20260505111511 | 56 | 131 | 0.0 | 1.7 | 0.03 | 0.33 | 0.15 | 88 | 1009.1 |
| 20260505111004 | 56 | 131 | 0.0 | 1.7 | 0.04 | 0.33 | 0.15 | 88 | 1009.1 |
| 20260505110504 | 56 | 131 | 0.0 | 1.7 | 0.04 | 0.33 | 0.15 | 87 | 1009.1 |
| 20260505102003 | 57 | 139 | 5.2 | 11.3 | 0.02 | 0.31 | 0.13 | 87 | 1009.8 |
| 20260505101513 | 57 | 153 | 4.3 | 13.0 | 0.01 | 0.30 | 0.12 | 87 | 1010.0 |
| 20260505101004 | 57 | 156 | 3.5 | 13.0 | 0.00 | 0.29 | 0.11 | 87 | 1010.2 |
| 20260505100502 | 57 | 157 | 2.6 | 12.2 | 0.01 | 0.29 | 0.11 | 87 | 1010.2 |
| 20260505100004 | 57 | 153 | 5.2 | 14.8 | 0.01 | 0.29 | 0.11 | 87 | 1010.0 |
| 20260505095502 | 57 | 144 | 7.0 | 14.8 | 0.01 | 0.29 | 0.11 | 87 | 1010.0 |
| 20260505095001 | 57 | 154 | 3.5 | 9.6 | 0.01 | 0.29 | 0.11 | 87 | 1009.9 |
| 20260505094512 | 57 | 139 | 3.5 | 9.6 | 0.02 | 0.29 | 0.11 | 87 | 1009.8 |
| 20260505094002 | 57 | 147 | 1.7 | 7.8 | 0.02 | 0.29 | 0.11 | 87 | 1009.8 |
| 20260505093503 | 57 | 145 | 2.6 | 7.8 | 0.02 | 0.29 | 0.11 | 87 | 1009.9 |
| 20260505093021 | 57 | 137 | 0.9 | 5.2 | 0.02 | 0.29 | 0.11 | 87 | 1010.1 |
| 20260505092504 | 57 | 137 | 1.7 | 7.0 | 0.03 | 0.29 | 0.11 | 88 | 1010.1 |
| 20260505092003 | 57 | 136 | 1.7 | 6.1 | 0.03 | 0.29 | 0.11 | 88 | 1010.3 |
| 20260505091507 | 57 | 136 | 0.9 | 3.5 | 0.04 | 0.29 | 0.11 | 88 | 1010.4 |
| 20260505091006 | 57 | 136 | 0.0 | 1.7 | 0.04 | 0.29 | 0.11 | 88 | 1010.5 |
| 20260505090504 | 57 | 136 | 0.0 | 1.7 | 0.04 | 0.28 | 0.10 | 88 | 1010.3 |
| 20260505090010 | 57 | 136 | 0.0 | 2.6 | 0.05 | 0.28 | 0.10 | 88 | 1010.3 |
| 20260505085505 | 57 | 136 | 0.9 | 3.5 | 0.05 | 0.28 | 0.10 | 88 | 1010.5 |
| 20260505085003 | 57 | 136 | 0.9 | 7.0 | 0.05 | 0.28 | 0.10 | 88 | 1010.7 |
| 20260505084503 | 57 | 136 | 0.0 | 7.0 | 0.05 | 0.27 | 0.09 | 88 | 1010.8 |
| 20260505084003 | 57 | 136 | 2.6 | 7.8 | 0.05 | 0.27 | 0.09 | 88 | 1010.9 |
| 20260505083505 | 57 | 136 | 2.6 | 7.8 | 0.06 | 0.27 | 0.09 | 88 | 1011.3 |
| 20260505083005 | 57 | 133 | 2.6 | 8.7 | 0.06 | 0.27 | 0.09 | 88 | 1011.4 |
| 20260505082505 | 57 | 132 | 3.5 | 7.8 | 0.06 | 0.26 | 0.08 | 88 | 1011.4 |
| 20260505082003 | 57 | 132 | 3.5 | 9.6 | 0.07 | 0.26 | 0.08 | 88 | 1011.8 |
| 20260505081504 | 57 | 126 | 2.6 | 9.6 | 0.07 | 0.25 | 0.07 | 88 | 1011.7 |
| 20260505081004 | 57 | 119 | 3.5 | 8.7 | 0.07 | 0.25 | 0.07 | 88 | 1011.7 |
| 20260505080503 | 57 | 118 | 2.6 | 6.1 | 0.06 | 0.24 | 0.06 | 88 | 1012.0 |
| 20260505080006 | 57 | 118 | 1.7 | 5.2 | 0.05 | 0.23 | 0.05 | 88 | 1012.3 |
| 20260505075506 | 57 | 117 | 1.7 | 4.3 | 0.06 | 0.23 | 0.05 | 88 | 1012.4 |
| 20260505075008 | 57 | 117 | 0.9 | 4.3 | 0.06 | 0.23 | 0.05 | 88 | 1012.5 |
| 20260505074515 | 58 | 117 | 0.9 | 4.3 | 0.06 | 0.22 | 0.04 | 88 | 1012.4 |
| 20260505074005 | 58 | 117 | 0.0 | 3.5 | 0.06 | 0.22 | 0.04 | 88 | 1012.5 |
| 20260505073502 | 58 | 117 | 0.9 | 3.5 | 0.06 | 0.21 | 0.03 | 88 | 1012.5 |
| 20260505073004 | 58 | 117 | 1.7 | 2.6 | 0.06 | 0.21 | 0.03 | 88 | 1012.5 |
| 20260505072502 | 58 | 117 | 0.0 | 2.6 | 0.06 | 0.20 | 0.02 | 87 | 1012.7 |
| 20260505072003 | 58 | 117 | 0.0 | 0.0 | 0.05 | 0.19 | 0.01 | 87 | 1012.9 |
| 20260505071505 | 58 | 117 | 0.0 | 0.0 | 0.05 | 0.18 | 0.00 | 87 | 1012.8 |
| 20260505071003 | 58 | 117 | 0.0 | 0.0 | 0.05 | 0.18 | 0.00 | 87 | 1012.7 |